Year,Month,Day,Hour,Minute,Value (Times are PST for temperature in C)
2012,05,26,00,00,14.70
2012,05,26,00,01,14.70
2012,05,26,00,02,14.70
2012,05,26,00,03,14.70
2012,05,26,00,04,14.70
2012,05,26,00,05,14.70
2012,05,26,00,06,14.70
2012,05,26,00,07,14.70
2012,05,26,00,08,14.70
2012,05,26,00,09,14.70
2012,05,26,00,10,14.70
2012,05,26,00,11,14.70
2012,05,26,00,12,14.60
2012,05,26,00,13,14.60
2012,05,26,00,14,14.60
2012,05,26,00,15,14.50
2012,05,26,00,16,14.40
2012,05,26,00,17,14.40
2012,05,26,00,18,14.30
2012,05,26,00,19,14.20
2012,05,26,00,20,14.20
2012,05,26,00,21,14.10
2012,05,26,00,22,14.00
2012,05,26,00,23,13.90
2012,05,26,00,24,13.90
2012,05,26,00,25,13.90
2012,05,26,00,26,13.80
2012,05,26,00,27,13.80
2012,05,26,00,28,13.80
2012,05,26,00,29,13.70
2012,05,26,00,30,13.70
2012,05,26,00,31,13.70
2012,05,26,00,32,13.60
2012,05,26,00,33,13.60
2012,05,26,00,34,13.50
2012,05,26,00,35,13.50
2012,05,26,00,36,13.40
2012,05,26,00,37,13.40
2012,05,26,00,38,13.40
2012,05,26,00,39,13.40
2012,05,26,00,40,13.40
2012,05,26,00,41,13.40
2012,05,26,00,42,13.40
2012,05,26,00,43,13.30
2012,05,26,00,44,13.30
2012,05,26,00,45,13.30
2012,05,26,00,46,13.20
2012,05,26,00,47,13.20
2012,05,26,00,48,13.10
2012,05,26,00,49,13.00
2012,05,26,00,50,12.90
2012,05,26,00,51,12.80
2012,05,26,00,52,12.70
2012,05,26,00,53,12.60
2012,05,26,00,54,12.60
2012,05,26,00,55,12.50
2012,05,26,00,56,12.40
2012,05,26,00,57,12.30
2012,05,26,00,58,12.30
2012,05,26,00,59,12.30
2012,05,26,01,00,12.30
2012,05,26,01,01,12.30
2012,05,26,01,02,12.30
2012,05,26,01,03,12.20
2012,05,26,01,04,12.20
2012,05,26,01,05,12.20
2012,05,26,01,06,12.20
2012,05,26,01,07,12.20
2012,05,26,01,08,12.20
2012,05,26,01,09,12.10
2012,05,26,01,10,12.10
2012,05,26,01,11,12.10
2012,05,26,01,12,12.10
2012,05,26,01,13,12.10
2012,05,26,01,14,12.10
2012,05,26,01,15,12.10
2012,05,26,01,16,12.20
2012,05,26,01,17,12.20
2012,05,26,01,18,12.30
2012,05,26,01,19,12.40
2012,05,26,01,20,12.40
2012,05,26,01,21,12.50
2012,05,26,01,22,12.50
2012,05,26,01,23,12.60
2012,05,26,01,24,12.60
2012,05,26,01,25,12.70
2012,05,26,01,26,12.70
2012,05,26,01,27,12.60
2012,05,26,01,28,12.60
2012,05,26,01,29,12.60
2012,05,26,01,30,12.60
2012,05,26,01,31,12.70
2012,05,26,01,32,12.70
2012,05,26,01,33,12.80
2012,05,26,01,34,12.80
2012,05,26,01,35,12.90
2012,05,26,01,36,12.90
2012,05,26,01,37,12.90
2012,05,26,01,38,13.00
2012,05,26,01,39,13.10
2012,05,26,01,40,13.10
2012,05,26,01,41,13.20
2012,05,26,01,42,13.20
2012,05,26,01,43,13.20
2012,05,26,01,44,13.30
2012,05,26,01,45,13.30
2012,05,26,01,46,13.40
2012,05,26,01,47,13.50
2012,05,26,01,48,13.60
2012,05,26,01,49,13.70
2012,05,26,01,50,13.70
2012,05,26,01,51,13.80
2012,05,26,01,52,13.90
2012,05,26,01,53,14.00
2012,05,26,01,54,14.00
2012,05,26,01,55,14.10
2012,05,26,01,56,14.10
2012,05,26,01,57,14.10
2012,05,26,01,58,14.20
2012,05,26,01,59,14.20
2012,05,26,02,00,14.20
2012,05,26,02,01,14.30
2012,05,26,02,02,14.30
2012,05,26,02,03,14.30
2012,05,26,02,04,14.40
2012,05,26,02,05,14.40
2012,05,26,02,06,14.50
2012,05,26,02,07,14.50
2012,05,26,02,08,14.60
2012,05,26,02,09,14.60
2012,05,26,02,10,14.70
2012,05,26,02,11,14.70
2012,05,26,02,12,14.70
2012,05,26,02,13,14.70
2012,05,26,02,14,14.80
2012,05,26,02,15,14.80
2012,05,26,02,16,14.80
2012,05,26,02,17,14.80
2012,05,26,02,18,14.90
2012,05,26,02,19,15.00
2012,05,26,02,20,15.00
2012,05,26,02,21,15.00
2012,05,26,02,22,15.00
2012,05,26,02,23,15.00
2012,05,26,02,24,15.00
2012,05,26,02,25,15.10
2012,05,26,02,26,15.10
2012,05,26,02,27,15.00
2012,05,26,02,28,15.00
2012,05,26,02,29,15.00
2012,05,26,02,30,15.00
2012,05,26,02,31,15.00
2012,05,26,02,32,15.00
2012,05,26,02,33,15.00
2012,05,26,02,34,14.90
2012,05,26,02,35,14.80
2012,05,26,02,36,14.70
2012,05,26,02,37,14.70
2012,05,26,02,38,14.60
2012,05,26,02,39,14.60
2012,05,26,02,40,14.50
2012,05,26,02,41,14.40
2012,05,26,02,42,14.40
2012,05,26,02,43,14.30
2012,05,26,02,44,14.20
2012,05,26,02,45,14.10
2012,05,26,02,46,14.00
2012,05,26,02,47,13.90
2012,05,26,02,48,13.90
2012,05,26,02,49,13.80
2012,05,26,02,50,13.80
2012,05,26,02,51,13.80
2012,05,26,02,52,13.70
2012,05,26,02,53,13.70
2012,05,26,02,54,13.70
2012,05,26,02,55,13.70
2012,05,26,02,56,13.70
2012,05,26,02,57,13.70
2012,05,26,02,58,13.60
2012,05,26,02,59,13.60
2012,05,26,03,00,13.60
2012,05,26,03,01,13.60
2012,05,26,03,02,13.60
2012,05,26,03,03,13.60
2012,05,26,03,04,13.60
2012,05,26,03,05,13.60
2012,05,26,03,06,13.50
2012,05,26,03,07,13.50
2012,05,26,03,08,13.40
2012,05,26,03,09,13.40
2012,05,26,03,10,13.30
2012,05,26,03,11,13.10
2012,05,26,03,12,13.00
2012,05,26,03,13,12.90
2012,05,26,03,14,12.70
2012,05,26,03,15,12.60
2012,05,26,03,16,12.50
2012,05,26,03,17,12.40
2012,05,26,03,18,12.40
2012,05,26,03,19,12.30
2012,05,26,03,20,12.30
2012,05,26,03,21,12.30
2012,05,26,03,22,12.30
2012,05,26,03,23,12.20
2012,05,26,03,24,12.20
2012,05,26,03,25,12.20
2012,05,26,03,26,12.20
2012,05,26,03,27,12.10
2012,05,26,03,28,12.10
2012,05,26,03,29,12.10
2012,05,26,03,30,12.10
2012,05,26,03,31,12.10
2012,05,26,03,32,12.10
2012,05,26,03,33,12.10
2012,05,26,03,34,12.10
2012,05,26,03,35,12.10
2012,05,26,03,36,12.10
2012,05,26,03,37,12.10
2012,05,26,03,38,12.10
2012,05,26,03,39,12.10
2012,05,26,03,40,12.10
2012,05,26,03,41,12.10
2012,05,26,03,42,12.10
2012,05,26,03,43,12.10
2012,05,26,03,44,12.10
2012,05,26,03,45,12.10
2012,05,26,03,46,12.10
2012,05,26,03,47,12.00
2012,05,26,03,48,12.00
2012,05,26,03,49,12.00
2012,05,26,03,50,12.00
2012,05,26,03,51,12.00
2012,05,26,03,52,12.00
2012,05,26,03,53,12.00
2012,05,26,03,54,11.90
2012,05,26,03,55,11.90
2012,05,26,03,56,11.90
2012,05,26,03,57,11.80
2012,05,26,03,58,11.80
2012,05,26,03,59,11.80
2012,05,26,04,00,11.80
2012,05,26,04,01,11.70
2012,05,26,04,02,11.70
2012,05,26,04,03,11.70
2012,05,26,04,04,11.70
2012,05,26,04,05,11.70
2012,05,26,04,06,11.60
2012,05,26,04,07,11.60
2012,05,26,04,08,11.60
2012,05,26,04,09,11.50
2012,05,26,04,10,11.50
2012,05,26,04,11,11.40
2012,05,26,04,12,11.40
2012,05,26,04,13,11.30
2012,05,26,04,14,11.30
2012,05,26,04,15,11.30
2012,05,26,04,16,11.30
2012,05,26,04,17,11.20
2012,05,26,04,18,11.20
2012,05,26,04,19,11.20
2012,05,26,04,20,11.10
2012,05,26,04,21,11.10
2012,05,26,04,22,11.10
2012,05,26,04,23,11.10
2012,05,26,04,24,11.00
2012,05,26,04,25,11.00
2012,05,26,04,26,11.00
2012,05,26,04,27,10.90
2012,05,26,04,28,10.90
2012,05,26,04,29,10.90
2012,05,26,04,30,10.90
2012,05,26,04,31,10.80
2012,05,26,04,32,10.80
2012,05,26,04,33,10.80
2012,05,26,04,34,10.80
2012,05,26,04,35,10.80
2012,05,26,04,36,10.80
2012,05,26,04,37,10.80
2012,05,26,04,38,10.80
2012,05,26,04,39,10.80
2012,05,26,04,40,10.80
2012,05,26,04,41,10.80
2012,05,26,04,42,10.80
2012,05,26,04,43,10.80
2012,05,26,04,44,10.80
2012,05,26,04,45,10.80
2012,05,26,04,46,10.90
2012,05,26,04,47,10.80
2012,05,26,04,48,10.80
2012,05,26,04,49,10.80
2012,05,26,04,50,10.80
2012,05,26,04,51,10.80
2012,05,26,04,52,10.70
2012,05,26,04,53,10.70
2012,05,26,04,54,10.70
2012,05,26,04,55,10.60
2012,05,26,04,56,10.60
2012,05,26,04,57,10.60
2012,05,26,04,58,10.50
2012,05,26,04,59,10.50
2012,05,26,05,00,10.50
2012,05,26,05,01,10.40
2012,05,26,05,02,10.40
2012,05,26,05,03,10.40
2012,05,26,05,04,10.40
2012,05,26,05,05,10.40
2012,05,26,05,06,10.40
2012,05,26,05,07,10.40
2012,05,26,05,08,10.40
2012,05,26,05,09,10.40
2012,05,26,05,10,10.40
2012,05,26,05,11,10.40
2012,05,26,05,12,10.40
2012,05,26,05,13,10.40
2012,05,26,05,14,10.40
2012,05,26,05,15,10.40
2012,05,26,05,16,10.40
2012,05,26,05,17,10.40
2012,05,26,05,18,10.50
2012,05,26,05,19,10.50
2012,05,26,05,20,10.50
2012,05,26,05,21,10.50
2012,05,26,05,22,10.60
2012,05,26,05,23,10.60
2012,05,26,05,24,10.60
2012,05,26,05,25,10.60
2012,05,26,05,26,10.70
2012,05,26,05,27,10.70
2012,05,26,05,28,10.70
2012,05,26,05,29,10.70
2012,05,26,05,30,10.70
2012,05,26,05,31,10.70
2012,05,26,05,32,10.70
2012,05,26,05,33,10.70
2012,05,26,05,34,10.70
2012,05,26,05,35,10.70
2012,05,26,05,36,10.70
2012,05,26,05,37,10.70
2012,05,26,05,38,10.70
2012,05,26,05,39,10.70
2012,05,26,05,40,10.70
2012,05,26,05,41,10.60
2012,05,26,05,42,10.60
2012,05,26,05,43,10.60
2012,05,26,05,44,10.50
2012,05,26,05,45,10.40
2012,05,26,05,46,10.40
2012,05,26,05,47,10.40
2012,05,26,05,48,10.40
2012,05,26,05,49,10.30
2012,05,26,05,50,10.30
2012,05,26,05,51,10.30
2012,05,26,05,52,10.30
2012,05,26,05,53,10.30
2012,05,26,05,54,10.30
2012,05,26,05,55,10.30
2012,05,26,05,56,10.30
2012,05,26,05,57,10.30
2012,05,26,05,58,10.30
2012,05,26,05,59,10.30
2012,05,26,06,00,10.30
2012,05,26,06,01,10.30
2012,05,26,06,02,10.40
2012,05,26,06,03,10.40
2012,05,26,06,04,10.40
2012,05,26,06,05,10.40
2012,05,26,06,06,10.40
2012,05,26,06,07,10.40
2012,05,26,06,08,10.50
2012,05,26,06,09,10.50
2012,05,26,06,10,10.50
2012,05,26,06,11,10.50
2012,05,26,06,12,10.60
2012,05,26,06,13,10.60
2012,05,26,06,14,10.60
2012,05,26,06,15,10.60
2012,05,26,06,16,10.60
2012,05,26,06,17,10.60
2012,05,26,06,18,10.70
2012,05,26,06,19,10.70
2012,05,26,06,20,10.70
2012,05,26,06,21,10.70
2012,05,26,06,22,10.80
2012,05,26,06,23,10.80
2012,05,26,06,24,10.90
2012,05,26,06,25,10.90
2012,05,26,06,26,11.00
2012,05,26,06,27,11.10
2012,05,26,06,28,11.10
2012,05,26,06,29,11.20
2012,05,26,06,30,11.30
2012,05,26,06,31,11.30
2012,05,26,06,32,11.40
2012,05,26,06,33,11.40
2012,05,26,06,34,11.40
2012,05,26,06,35,11.50
2012,05,26,06,36,11.50
2012,05,26,06,37,11.60
2012,05,26,06,38,11.60
2012,05,26,06,39,11.60
2012,05,26,06,40,11.70
2012,05,26,06,41,11.70
2012,05,26,06,42,11.80
2012,05,26,06,43,11.80
2012,05,26,06,44,11.80
2012,05,26,06,45,11.90
2012,05,26,06,46,12.00
2012,05,26,06,47,12.00
2012,05,26,06,48,12.10
2012,05,26,06,49,12.10
2012,05,26,06,50,12.20
2012,05,26,06,51,12.20
2012,05,26,06,52,12.30
2012,05,26,06,53,12.30
2012,05,26,06,54,12.40
2012,05,26,06,55,12.40
2012,05,26,06,56,12.50
2012,05,26,06,57,12.60
2012,05,26,06,58,12.70
2012,05,26,06,59,12.80
2012,05,26,07,00,12.90
2012,05,26,07,01,13.00
2012,05,26,07,02,13.10
2012,05,26,07,03,13.20
2012,05,26,07,04,13.20
2012,05,26,07,05,13.30
2012,05,26,07,06,13.40
2012,05,26,07,07,13.40
2012,05,26,07,08,13.50
2012,05,26,07,09,13.60
2012,05,26,07,10,13.60
2012,05,26,07,11,13.70
2012,05,26,07,12,13.70
2012,05,26,07,13,13.70
2012,05,26,07,14,13.80
2012,05,26,07,15,13.80
2012,05,26,07,16,13.80
2012,05,26,07,17,14.00
2012,05,26,07,18,14.10
2012,05,26,07,19,14.30
2012,05,26,07,20,14.40
2012,05,26,07,21,14.60
2012,05,26,07,22,14.80
2012,05,26,07,23,15.00
2012,05,26,07,24,15.00
2012,05,26,07,25,15.00
2012,05,26,07,26,15.10
2012,05,26,07,27,15.30
2012,05,26,07,28,15.40
2012,05,26,07,29,15.50
2012,05,26,07,30,15.60
2012,05,26,07,31,15.70
2012,05,26,07,32,15.80
2012,05,26,07,33,15.80
2012,05,26,07,34,15.90
2012,05,26,07,35,15.80
2012,05,26,07,36,15.80
2012,05,26,07,37,15.80
2012,05,26,07,38,15.80
2012,05,26,07,39,15.80
2012,05,26,07,40,15.80
2012,05,26,07,41,15.80
2012,05,26,07,42,15.80
2012,05,26,07,43,15.80
2012,05,26,07,44,15.80
2012,05,26,07,45,15.80
2012,05,26,07,46,15.80
2012,05,26,07,47,15.70
2012,05,26,07,48,15.70
2012,05,26,07,49,15.70
2012,05,26,07,50,15.70
2012,05,26,07,51,15.70
2012,05,26,07,52,15.70
2012,05,26,07,53,15.70
2012,05,26,07,54,15.60
2012,05,26,07,55,15.60
2012,05,26,07,56,15.60
2012,05,26,07,57,15.50
2012,05,26,07,58,15.50
2012,05,26,07,59,15.40
2012,05,26,08,00,15.30
2012,05,26,08,01,15.30
2012,05,26,08,02,15.30
2012,05,26,08,03,15.30
2012,05,26,08,04,15.40
2012,05,26,08,05,15.40
2012,05,26,08,06,15.30
2012,05,26,08,07,15.30
2012,05,26,08,08,15.40
2012,05,26,08,09,15.40
2012,05,26,08,10,15.40
2012,05,26,08,11,15.40
2012,05,26,08,12,15.40
2012,05,26,08,13,15.40
2012,05,26,08,14,15.40
2012,05,26,08,15,15.40
2012,05,26,08,16,15.50
2012,05,26,08,17,15.50
2012,05,26,08,18,15.60
2012,05,26,08,19,15.60
2012,05,26,08,20,15.70
2012,05,26,08,21,15.80
2012,05,26,08,22,15.90
2012,05,26,08,23,16.10
2012,05,26,08,24,16.20
2012,05,26,08,25,16.30
2012,05,26,08,26,16.40
2012,05,26,08,27,16.50
2012,05,26,08,28,16.60
2012,05,26,08,29,16.60
2012,05,26,08,30,16.70
2012,05,26,08,31,16.80
2012,05,26,08,32,16.80
2012,05,26,08,33,16.70
2012,05,26,08,34,16.70
2012,05,26,08,35,16.70
2012,05,26,08,36,16.70
2012,05,26,08,37,16.80
2012,05,26,08,38,16.80
2012,05,26,08,39,16.80
2012,05,26,08,40,16.80
2012,05,26,08,41,16.80
2012,05,26,08,42,16.80
2012,05,26,08,43,16.80
2012,05,26,08,44,16.80
2012,05,26,08,45,16.80
2012,05,26,08,46,16.80
2012,05,26,08,47,16.90
2012,05,26,08,48,16.90
2012,05,26,08,49,16.90
2012,05,26,08,50,16.90
2012,05,26,08,51,16.90
2012,05,26,08,52,16.90
2012,05,26,08,53,16.90
2012,05,26,08,54,17.00
2012,05,26,08,55,17.00
2012,05,26,08,56,17.10
2012,05,26,08,57,17.10
2012,05,26,08,58,17.20
2012,05,26,08,59,17.20
2012,05,26,09,00,17.20
2012,05,26,09,01,17.20
2012,05,26,09,02,17.20
2012,05,26,09,03,17.30
2012,05,26,09,04,17.40
2012,05,26,09,05,17.40
2012,05,26,09,06,17.40
2012,05,26,09,07,17.50
2012,05,26,09,08,17.50
2012,05,26,09,09,17.60
2012,05,26,09,10,17.60
2012,05,26,09,11,17.60
2012,05,26,09,12,17.70
2012,05,26,09,13,17.70
2012,05,26,09,14,17.70
2012,05,26,09,15,17.70
2012,05,26,09,16,17.70
2012,05,26,09,17,17.70
2012,05,26,09,18,17.80
2012,05,26,09,19,17.80
2012,05,26,09,20,17.90
2012,05,26,09,21,17.90
2012,05,26,09,22,17.90
2012,05,26,09,23,18.00
2012,05,26,09,24,18.00
2012,05,26,09,25,18.00
2012,05,26,09,26,17.90
2012,05,26,09,27,17.90
2012,05,26,09,28,17.90
2012,05,26,09,29,18.00
2012,05,26,09,30,18.00
2012,05,26,09,31,18.10
2012,05,26,09,32,18.00
2012,05,26,09,33,17.90
2012,05,26,09,34,17.80
2012,05,26,09,35,17.80
2012,05,26,09,36,17.80
2012,05,26,09,37,17.70
2012,05,26,09,38,17.70
2012,05,26,09,39,17.60
2012,05,26,09,40,17.60
2012,05,26,09,41,17.60
2012,05,26,09,42,17.60
2012,05,26,09,43,17.60
2012,05,26,09,44,17.60
2012,05,26,09,45,17.70
2012,05,26,09,46,17.80
2012,05,26,09,47,17.90
2012,05,26,09,48,18.10
2012,05,26,09,49,18.20
2012,05,26,09,50,18.20
2012,05,26,09,51,18.20
2012,05,26,09,52,18.30
2012,05,26,09,53,18.30
2012,05,26,09,54,18.30
2012,05,26,09,55,18.30
2012,05,26,09,56,18.30
2012,05,26,09,57,18.30
2012,05,26,09,58,18.20
2012,05,26,09,59,18.20
2012,05,26,10,00,18.20
2012,05,26,10,01,18.30
2012,05,26,10,02,18.30
2012,05,26,10,03,18.40
2012,05,26,10,04,18.50
2012,05,26,10,05,18.60
2012,05,26,10,06,18.70
2012,05,26,10,07,18.80
2012,05,26,10,08,18.80
2012,05,26,10,09,18.90
2012,05,26,10,10,19.00
2012,05,26,10,11,19.00
2012,05,26,10,12,19.00
2012,05,26,10,13,19.10
2012,05,26,10,14,19.20
2012,05,26,10,15,19.20
2012,05,26,10,16,19.20
2012,05,26,10,17,19.20
2012,05,26,10,18,19.30
2012,05,26,10,19,19.30
2012,05,26,10,20,19.30
2012,05,26,10,21,19.40
2012,05,26,10,22,19.40
2012,05,26,10,23,19.30
2012,05,26,10,24,19.10
2012,05,26,10,25,18.90
2012,05,26,10,26,18.80
2012,05,26,10,27,18.70
2012,05,26,10,28,18.70
2012,05,26,10,29,18.70
2012,05,26,10,30,18.80
2012,05,26,10,31,18.80
2012,05,26,10,32,18.80
2012,05,26,10,33,18.90
2012,05,26,10,34,19.00
2012,05,26,10,35,19.10
2012,05,26,10,36,19.20
2012,05,26,10,37,19.30
2012,05,26,10,38,19.40
2012,05,26,10,39,19.50
2012,05,26,10,40,19.60
2012,05,26,10,41,19.60
2012,05,26,10,42,19.50
2012,05,26,10,43,19.40
2012,05,26,10,44,19.30
2012,05,26,10,45,19.30
2012,05,26,10,46,19.30
2012,05,26,10,47,19.30
2012,05,26,10,48,19.40
2012,05,26,10,49,19.40
2012,05,26,10,50,19.40
2012,05,26,10,51,19.30
2012,05,26,10,52,19.40
2012,05,26,10,53,19.50
2012,05,26,10,54,19.60
2012,05,26,10,55,19.70
2012,05,26,10,56,19.90
2012,05,26,10,57,19.90
2012,05,26,10,58,20.00
2012,05,26,10,59,19.90
2012,05,26,11,00,19.80
2012,05,26,11,01,19.80
2012,05,26,11,02,19.80
2012,05,26,11,03,19.70
2012,05,26,11,04,19.80
2012,05,26,11,05,19.80
2012,05,26,11,06,19.80
2012,05,26,11,07,19.90
2012,05,26,11,08,19.90
2012,05,26,11,09,20.00
2012,05,26,11,10,20.10
2012,05,26,11,11,20.10
2012,05,26,11,12,20.10
2012,05,26,11,13,20.00
2012,05,26,11,14,19.90
2012,05,26,11,15,19.90
2012,05,26,11,16,19.90
2012,05,26,11,17,19.90
2012,05,26,11,18,19.90
2012,05,26,11,19,20.00
2012,05,26,11,20,20.10
2012,05,26,11,21,20.10
2012,05,26,11,22,20.20
2012,05,26,11,23,20.30
2012,05,26,11,24,20.30
2012,05,26,11,25,20.30
2012,05,26,11,26,20.20
2012,05,26,11,27,20.20
2012,05,26,11,28,20.10
2012,05,26,11,29,20.20
2012,05,26,11,30,20.20
2012,05,26,11,31,20.20
2012,05,26,11,32,20.10
2012,05,26,11,33,20.10
2012,05,26,11,34,20.00
2012,05,26,11,35,20.00
2012,05,26,11,36,20.00
2012,05,26,11,37,20.00
2012,05,26,11,38,20.00
2012,05,26,11,39,19.90
2012,05,26,11,40,19.80
2012,05,26,11,41,19.80
2012,05,26,11,42,19.90
2012,05,26,11,43,20.00
2012,05,26,11,44,20.10
2012,05,26,11,45,20.10
2012,05,26,11,46,20.00
2012,05,26,11,47,20.00
2012,05,26,11,48,19.90
2012,05,26,11,49,20.00
2012,05,26,11,50,20.00
2012,05,26,11,51,20.00
2012,05,26,11,52,20.00
2012,05,26,11,53,19.90
2012,05,26,11,54,19.80
2012,05,26,11,55,19.70
2012,05,26,11,56,19.70
2012,05,26,11,57,19.70
2012,05,26,11,58,19.70
2012,05,26,11,59,19.70
2012,05,26,12,00,19.70
2012,05,26,12,01,19.70
2012,05,26,12,02,19.70
2012,05,26,12,03,19.80
2012,05,26,12,04,19.90
2012,05,26,12,05,20.10
2012,05,26,12,06,20.20
2012,05,26,12,07,20.20
2012,05,26,12,08,20.30
2012,05,26,12,09,20.30
2012,05,26,12,10,20.40
2012,05,26,12,11,20.50
2012,05,26,12,12,20.60
2012,05,26,12,13,20.60
2012,05,26,12,14,20.60
2012,05,26,12,15,20.60
2012,05,26,12,16,20.60
2012,05,26,12,17,20.60
2012,05,26,12,18,20.60
2012,05,26,12,19,20.50
2012,05,26,12,20,20.40
2012,05,26,12,21,20.40
2012,05,26,12,22,20.50
2012,05,26,12,23,20.40
2012,05,26,12,24,20.40
2012,05,26,12,25,20.30
2012,05,26,12,26,20.40
2012,05,26,12,27,20.50
2012,05,26,12,28,20.60
2012,05,26,12,29,20.60
2012,05,26,12,30,20.60
2012,05,26,12,31,20.70
2012,05,26,12,32,20.70
2012,05,26,12,33,20.50
2012,05,26,12,34,20.40
2012,05,26,12,35,20.40
2012,05,26,12,36,20.40
2012,05,26,12,37,20.40
2012,05,26,12,38,20.30
2012,05,26,12,39,20.40
2012,05,26,12,40,20.50
2012,05,26,12,41,20.60
2012,05,26,12,42,20.60
2012,05,26,12,43,20.60
2012,05,26,12,44,20.60
2012,05,26,12,45,20.50
2012,05,26,12,46,20.40
2012,05,26,12,47,20.30
2012,05,26,12,48,20.30
2012,05,26,12,49,20.40
2012,05,26,12,50,20.50
2012,05,26,12,51,20.50
2012,05,26,12,52,20.60
2012,05,26,12,53,20.70
2012,05,26,12,54,20.80
2012,05,26,12,55,20.80
2012,05,26,12,56,20.90
2012,05,26,12,57,20.80
2012,05,26,12,58,20.80
2012,05,26,12,59,20.70
2012,05,26,13,00,20.70
2012,05,26,13,01,20.80
2012,05,26,13,02,20.80
2012,05,26,13,03,20.90
2012,05,26,13,04,20.90
2012,05,26,13,05,21.00
2012,05,26,13,06,21.00
2012,05,26,13,07,21.10
2012,05,26,13,08,21.00
2012,05,26,13,09,20.90
2012,05,26,13,10,20.90
2012,05,26,13,11,20.90
2012,05,26,13,12,20.90
2012,05,26,13,13,20.90
2012,05,26,13,14,20.90
2012,05,26,13,15,20.90
2012,05,26,13,16,20.90
2012,05,26,13,17,20.90
2012,05,26,13,18,20.90
2012,05,26,13,19,21.00
2012,05,26,13,20,21.10
2012,05,26,13,21,21.20
2012,05,26,13,22,21.20
2012,05,26,13,23,21.20
2012,05,26,13,24,21.20
2012,05,26,13,25,21.30
2012,05,26,13,26,21.30
2012,05,26,13,27,21.40
2012,05,26,13,28,21.50
2012,05,26,13,29,21.60
2012,05,26,13,30,21.60
2012,05,26,13,31,21.60
2012,05,26,13,32,21.50
2012,05,26,13,33,21.50
2012,05,26,13,34,21.50
2012,05,26,13,35,21.40
2012,05,26,13,36,21.50
2012,05,26,13,37,21.50
2012,05,26,13,38,21.60
2012,05,26,13,39,21.60
2012,05,26,13,40,21.60
2012,05,26,13,41,21.60
2012,05,26,13,42,21.60
2012,05,26,13,43,21.70
2012,05,26,13,44,21.70
2012,05,26,13,45,21.80
2012,05,26,13,46,21.80
2012,05,26,13,47,21.90
2012,05,26,13,48,21.90
2012,05,26,13,49,22.00
2012,05,26,13,50,22.10
2012,05,26,13,51,22.10
2012,05,26,13,52,22.10
2012,05,26,13,53,22.10
2012,05,26,13,54,22.10
2012,05,26,13,55,22.10
2012,05,26,13,56,22.10
2012,05,26,13,57,22.10
2012,05,26,13,58,22.00
2012,05,26,13,59,21.90
2012,05,26,14,00,21.90
2012,05,26,14,01,22.00
2012,05,26,14,02,22.00
2012,05,26,14,03,22.10
2012,05,26,14,04,22.00
2012,05,26,14,05,21.90
2012,05,26,14,06,21.90
2012,05,26,14,07,21.90
2012,05,26,14,08,21.90
2012,05,26,14,09,22.00
2012,05,26,14,10,22.10
2012,05,26,14,11,22.20
2012,05,26,14,12,22.30
2012,05,26,14,13,22.30
2012,05,26,14,14,22.30
2012,05,26,14,15,22.30
2012,05,26,14,16,22.40
2012,05,26,14,17,22.30
2012,05,26,14,18,22.30
2012,05,26,14,19,22.30
2012,05,26,14,20,22.30
2012,05,26,14,21,22.30
2012,05,26,14,22,22.30
2012,05,26,14,23,22.20
2012,05,26,14,24,22.20
2012,05,26,14,25,22.20
2012,05,26,14,26,22.20
2012,05,26,14,27,22.20
2012,05,26,14,28,22.20
2012,05,26,14,29,22.20
2012,05,26,14,30,22.20
2012,05,26,14,31,22.20
2012,05,26,14,32,22.10
2012,05,26,14,33,22.10
2012,05,26,14,34,22.10
2012,05,26,14,35,22.10
2012,05,26,14,36,22.10
2012,05,26,14,37,22.20
2012,05,26,14,38,22.20
2012,05,26,14,39,22.20
2012,05,26,14,40,22.20
2012,05,26,14,41,22.30
2012,05,26,14,42,22.30
2012,05,26,14,43,22.40
2012,05,26,14,44,22.40
2012,05,26,14,45,22.40
2012,05,26,14,46,22.40
2012,05,26,14,47,22.40
2012,05,26,14,48,22.30
2012,05,26,14,49,22.30
2012,05,26,14,50,22.30
2012,05,26,14,51,22.30
2012,05,26,14,52,22.30
2012,05,26,14,53,22.30
2012,05,26,14,54,22.30
2012,05,26,14,55,22.30
2012,05,26,14,56,22.40
2012,05,26,14,57,22.40
2012,05,26,14,58,22.40
2012,05,26,14,59,22.50
2012,05,26,15,00,22.60
2012,05,26,15,01,22.60
2012,05,26,15,02,22.60
2012,05,26,15,03,22.70
2012,05,26,15,04,22.80
2012,05,26,15,05,22.80
2012,05,26,15,06,22.80
2012,05,26,15,07,22.80
2012,05,26,15,08,22.80
2012,05,26,15,09,22.70
2012,05,26,15,10,22.70
2012,05,26,15,11,22.70
2012,05,26,15,12,22.70
2012,05,26,15,13,22.70
2012,05,26,15,14,22.70
2012,05,26,15,15,22.70
2012,05,26,15,16,22.70
2012,05,26,15,17,22.70
2012,05,26,15,18,22.80
2012,05,26,15,19,22.80
2012,05,26,15,20,22.80
2012,05,26,15,21,22.90
2012,05,26,15,22,22.90
2012,05,26,15,23,22.90
2012,05,26,15,24,22.90
2012,05,26,15,25,23.00
2012,05,26,15,26,23.00
2012,05,26,15,27,22.90
2012,05,26,15,28,22.90
2012,05,26,15,29,22.80
2012,05,26,15,30,22.80
2012,05,26,15,31,22.70
2012,05,26,15,32,22.70
2012,05,26,15,33,22.60
2012,05,26,15,34,22.60
2012,05,26,15,35,22.60
2012,05,26,15,36,22.60
2012,05,26,15,37,22.70
2012,05,26,15,38,22.70
2012,05,26,15,39,22.80
2012,05,26,15,40,22.80
2012,05,26,15,41,22.70
2012,05,26,15,42,22.80
2012,05,26,15,43,22.80
2012,05,26,15,44,22.80
2012,05,26,15,45,22.90
2012,05,26,15,46,22.90
2012,05,26,15,47,22.90
2012,05,26,15,48,22.90
2012,05,26,15,49,23.00
2012,05,26,15,50,23.00
2012,05,26,15,51,23.00
2012,05,26,15,52,23.00
2012,05,26,15,53,22.90
2012,05,26,15,54,22.80
2012,05,26,15,55,22.80
2012,05,26,15,56,22.80
2012,05,26,15,57,22.80
2012,05,26,15,58,22.80
2012,05,26,15,59,22.80
2012,05,26,16,00,22.90
2012,05,26,16,01,22.90
2012,05,26,16,02,23.10
2012,05,26,16,03,23.20
2012,05,26,16,04,23.30
2012,05,26,16,05,23.30
2012,05,26,16,06,23.30
2012,05,26,16,07,23.40
2012,05,26,16,08,23.40
2012,05,26,16,09,23.40
2012,05,26,16,10,23.40
2012,05,26,16,11,23.50
2012,05,26,16,12,23.50
2012,05,26,16,13,23.60
2012,05,26,16,14,23.60
2012,05,26,16,15,23.70
2012,05,26,16,16,23.70
2012,05,26,16,17,23.80
2012,05,26,16,18,23.90
2012,05,26,16,19,24.10
2012,05,26,16,20,24.20
2012,05,26,16,21,24.30
2012,05,26,16,22,24.30
2012,05,26,16,23,24.30
2012,05,26,16,24,24.30
2012,05,26,16,25,24.30
2012,05,26,16,26,24.30
2012,05,26,16,27,24.30
2012,05,26,16,28,24.30
2012,05,26,16,29,24.20
2012,05,26,16,30,24.20
2012,05,26,16,31,24.20
2012,05,26,16,32,24.20
2012,05,26,16,33,24.20
2012,05,26,16,34,24.20
2012,05,26,16,35,24.10
2012,05,26,16,36,24.10
2012,05,26,16,37,24.10
2012,05,26,16,38,24.10
2012,05,26,16,39,24.20
2012,05,26,16,40,24.30
2012,05,26,16,41,24.50
2012,05,26,16,42,24.80
2012,05,26,16,43,25.00
2012,05,26,16,44,25.20
2012,05,26,16,45,25.30
2012,05,26,16,46,25.30
2012,05,26,16,47,25.40
2012,05,26,16,48,25.40
2012,05,26,16,49,25.30
2012,05,26,16,50,25.30
2012,05,26,16,51,25.10
2012,05,26,16,52,25.10
2012,05,26,16,53,25.10
2012,05,26,16,54,25.10
2012,05,26,16,55,25.10
2012,05,26,16,56,25.10
2012,05,26,16,57,25.10
2012,05,26,16,58,25.00
2012,05,26,16,59,24.90
2012,05,26,17,00,24.80
2012,05,26,17,01,24.70
2012,05,26,17,02,24.60
2012,05,26,17,03,24.50
2012,05,26,17,04,24.60
2012,05,26,17,05,24.60
2012,05,26,17,06,24.70
2012,05,26,17,07,24.80
2012,05,26,17,08,25.00
2012,05,26,17,09,25.20
2012,05,26,17,10,25.30
2012,05,26,17,11,25.50
2012,05,26,17,12,25.70
2012,05,26,17,13,25.90
2012,05,26,17,14,26.00
2012,05,26,17,15,26.10
2012,05,26,17,16,26.20
2012,05,26,17,17,26.20
2012,05,26,17,18,26.10
2012,05,26,17,19,26.00